Wetterdaten: Sonntag, 10.11.2013
Datum Zeit Temperatur Luftfeuchte Luftdruck Regen Wind Richtung Richtung Taupunkt Windchill Windben
10.11.2013 00:00 0,3 C 96 % 1012,2 hPa 0,0 l/m 0,2 km/h (0 Bft) NO 45 -0,3 C -0,5 C 0,0 km/h (0 Bft)
10.11.2013 00:05 0,3 C 96 % 1012,2 hPa 0,0 l/m 0,2 km/h (0 Bft) O 90 -0,3 C -0,6 C 0,0 km/h (0 Bft)
10.11.2013 00:10 0,4 C 96 % 1012,1 hPa 0,0 l/m 0,5 km/h (0 Bft) N-NO 22 -0,2 C -0,5 C 0,0 km/h (0 Bft)
10.11.2013 00:15 -0,2 C 96 % 1012,1 hPa 0,0 l/m 0,3 km/h (0 Bft) N-NO 22 -0,8 C -0,7 C 0,0 km/h (0 Bft)
10.11.2013 00:20 -0,4 C 96 % 1012,1 hPa 0,0 l/m 0,0 km/h (0 Bft) N-NO 22 -1,0 C -0,8 C 0,0 km/h (0 Bft)
10.11.2013 00:25 -0,5 C 96 % 1012,1 hPa 0,0 l/m 0,0 km/h (0 Bft) N-NO 22 -1,1 C -1,0 C 0,0 km/h (0 Bft)
10.11.2013 00:30 -0,1 C 96 % 1011,9 hPa 0,0 l/m 0,0 km/h (0 Bft) O 90 -0,7 C -1,1 C 0,0 km/h (0 Bft)
10.11.2013 00:35 -0,1 C 96 % 1011,9 hPa 0,0 l/m 0,3 km/h (0 Bft) W 270 -0,7 C -1,1 C 1,8 km/h (1 Bft)
10.11.2013 00:40 -0,1 C 96 % 1011,9 hPa 0,0 l/m 1,1 km/h (1 Bft) S-SW 202 -0,7 C -0,9 C 4,5 km/h (1 Bft)
10.11.2013 00:45 -0,2 C 96 % 1011,9 hPa 0,0 l/m 1,0 km/h (0 Bft) N-NW 337 -0,8 C -0,7 C 0,0 km/h (0 Bft)
10.11.2013 00:50 -0,3 C 96 % 1011,9 hPa 0,0 l/m 0,8 km/h (0 Bft) SW 225 -0,9 C -0,8 C 4,0 km/h (1 Bft)
10.11.2013 00:55 -0,3 C 96 % 1011,9 hPa 0,0 l/m 1,1 km/h (1 Bft) O 90 -0,9 C -0,7 C 2,6 km/h (1 Bft)
10.11.2013 01:00 -0,2 C 96 % 1011,9 hPa 0,0 l/m 2,3 km/h (1 Bft) S-SO 157 -0,8 C -0,6 C 5,3 km/h (1 Bft)
10.11.2013 01:05 0,0 C 96 % 1011,9 hPa 0,0 l/m 2,4 km/h (1 Bft) O 90 -0,6 C -0,6 C 1,6 km/h (1 Bft)
10.11.2013 01:10 0,0 C 96 % 1012,0 hPa 0,0 l/m 2,9 km/h (1 Bft) S 180 -0,6 C -0,7 C 6,9 km/h (2 Bft)
10.11.2013 01:15 0,1 C 96 % 1012,0 hPa 0,0 l/m 2,4 km/h (1 Bft) NO 45 -0,5 C -0,2 C 3,1 km/h (1 Bft)
10.11.2013 01:20 0,5 C 97 % 1012,0 hPa 0,0 l/m 1,4 km/h (1 Bft) NO 45 0,1 C 0,0 C 4,7 km/h (1 Bft)
10.11.2013 01:25 0,7 C 97 % 1012,0 hPa 0,0 l/m 1,3 km/h (1 Bft) O 90 0,3 C 0,3 C 2,3 km/h (1 Bft)
10.11.2013 01:30 0,9 C 97 % 1012,1 hPa 0,0 l/m 1,1 km/h (1 Bft) O-NO 67 0,5 C 0,6 C 0,0 km/h (0 Bft)
10.11.2013 01:35 1,0 C 96 % 1012,1 hPa 0,0 l/m 0,5 km/h (0 Bft) W-SW 247 0,4 C 0,8 C 0,0 km/h (0 Bft)
10.11.2013 01:40 0,7 C 97 % 1012,1 hPa 0,0 l/m 1,0 km/h (0 Bft) N-NO 22 0,3 C 0,7 C 2,9 km/h (1 Bft)
10.11.2013 01:45 0,6 C 97 % 1012,1 hPa 0,0 l/m 1,0 km/h (0 Bft) S 180 0,2 C 0,7 C 2,4 km/h (1 Bft)
10.11.2013 01:50 0,7 C 97 % 1011,7 hPa 0,0 l/m 0,3 km/h (0 Bft) W 270 0,3 C 0,7 C 0,0 km/h (0 Bft)
10.11.2013 01:55 0,7 C 97 % 1011,7 hPa 0,0 l/m 0,6 km/h (0 Bft) N 360 0,3 C 0,7 C 3,2 km/h (1 Bft)
10.11.2013 02:00 0,7 C 97 % 1011,7 hPa 0,0 l/m 1,1 km/h (1 Bft) NO 45 0,3 C 0,7 C 2,1 km/h (1 Bft)
10.11.2013 02:05 0,7 C 97 % 1011,7 hPa 0,0 l/m 1,0 km/h (0 Bft) N-NO 22 0,3 C 0,7 C 0,0 km/h (0 Bft)
10.11.2013 02:10 0,9 C 97 % 1011,9 hPa 0,0 l/m 0,2 km/h (0 Bft) NO 45 0,5 C 0,7 C 0,0 km/h (0 Bft)
10.11.2013 02:15 0,9 C 97 % 1011,9 hPa 0,0 l/m 0,3 km/h (0 Bft) NO 45 0,5 C 0,8 C 3,7 km/h (1 Bft)
10.11.2013 02:20 1,0 C 97 % 1011,9 hPa 0,0 l/m 1,4 km/h (1 Bft) S-SW 202 0,6 C 1,0 C 3,4 km/h (1 Bft)
10.11.2013 02:25 1,1 C 97 % 1011,9 hPa 0,0 l/m 1,9 km/h (1 Bft) N-NW 337 0,7 C 1,0 C 0,0 km/h (0 Bft)
10.11.2013 02:30 1,0 C 97 % 1011,8 hPa 0,0 l/m 1,0 km/h (0 Bft) S 180 0,6 C 1,1 C 0,0 km/h (0 Bft)
10.11.2013 02:35 1,1 C 97 % 1011,8 hPa 0,0 l/m 0,3 km/h (0 Bft) O 90 0,7 C 1,1 C 0,0 km/h (0 Bft)
10.11.2013 02:40 1,1 C 97 % 1011,8 hPa 0,0 l/m 0,5 km/h (0 Bft) SO 135 0,7 C 1,2 C 0,0 km/h (0 Bft)
10.11.2013 02:45 1,5 C 97 % 1011,8 hPa 0,0 l/m 1,4 km/h (1 Bft) NO 45 1,1 C 1,3 C 1,8 km/h (1 Bft)
10.11.2013 02:50 1,9 C 97 % 1011,6 hPa 0,0 l/m 2,6 km/h (1 Bft) S 180 1,5 C 1,8 C 0,0 km/h (0 Bft)
10.11.2013 02:55 2,0 C 97 % 1011,6 hPa 0,0 l/m 2,7 km/h (1 Bft) N-NO 22 1,6 C 1,9 C 3,9 km/h (1 Bft)
10.11.2013 02:58 1,9 C 97 % 1011,6 hPa 0,0 l/m 2,4 km/h (1 Bft) O-SO 112 1,5 C 2,1 C 3,1 km/h (1 Bft)
10.11.2013 03:00 1,9 C 97 % 1011,6 hPa 0,0 l/m 2,4 km/h (1 Bft) O-SO 112 1,5 C 2,1 C 3,1 km/h (1 Bft)
10.11.2013 03:05 2,0 C 97 % 1011,6 hPa 0,0 l/m 2,3 km/h (1 Bft) N-NO 22 1,6 C 2,2 C 0,0 km/h (0 Bft)
10.11.2013 03:10 2,0 C 97 % 1011,4 hPa 0,0 l/m 1,3 km/h (1 Bft) O-SO 112 1,6 C 2,2 C 0,0 km/h (0 Bft)
10.11.2013 03:15 2,0 C 97 % 1011,4 hPa 0,0 l/m 0,5 km/h (0 Bft) S 180 1,6 C 2,1 C 0,0 km/h (0 Bft)
10.11.2013 03:20 1,8 C 97 % 1011,4 hPa 0,0 l/m 0,5 km/h (0 Bft) S-SW 202 1,4 C 2,1 C 0,0 km/h (0 Bft)
10.11.2013 03:25 1,8 C 97 % 1011,4 hPa 0,0 l/m 0,8 km/h (0 Bft) N-NO 22 1,4 C 2,0 C 0,0 km/h (0 Bft)
10.11.2013 03:30 1,9 C 97 % 1011,2 hPa 0,0 l/m 1,0 km/h (0 Bft) N 360 1,5 C 1,9 C 0,0 km/h (0 Bft)
10.11.2013 03:35 1,8 C 97 % 1011,2 hPa 0,0 l/m 0,6 km/h (0 Bft) NO 45 1,4 C 1,8 C 0,0 km/h (0 Bft)
10.11.2013 03:40 2,0 C 97 % 1011,2 hPa 0,0 l/m 0,5 km/h (0 Bft) NO 45 1,6 C 1,9 C 6,4 km/h (2 Bft)
10.11.2013 03:45 2,3 C 97 % 1011,2 hPa 0,0 l/m 1,8 km/h (1 Bft) N 360 1,9 C 2,1 C 2,7 km/h (1 Bft)
10.11.2013 03:50 2,3 C 97 % 1010,6 hPa 0,0 l/m 2,4 km/h (1 Bft) O-SO 112 1,9 C 2,3 C 0,0 km/h (0 Bft)
10.11.2013 03:55 2,4 C 97 % 1010,6 hPa 0,0 l/m 1,6 km/h (1 Bft) NO 45 2,0 C 2,3 C 4,0 km/h (1 Bft)
10.11.2013 04:00 2,4 C 97 % 1010,6 hPa 0,0 l/m 0,6 km/h (0 Bft) NO 45 2,0 C 2,4 C 0,0 km/h (0 Bft)
10.11.2013 04:05 2,4 C 97 % 1010,6 hPa 0,0 l/m 0,8 km/h (0 Bft) O 90 2,0 C 2,4 C 3,5 km/h (1 Bft)
10.11.2013 04:10 2,5 C 97 % 1010,2 hPa 0,0 l/m 1,4 km/h (1 Bft) W-SW 247 2,1 C 2,5 C 2,1 km/h (1 Bft)
10.11.2013 04:15 2,5 C 97 % 1010,2 hPa 0,0 l/m 1,9 km/h (1 Bft) W-NW 292 2,1 C 2,5 C 4,3 km/h (1 Bft)
10.11.2013 04:20 2,6 C 97 % 1010,2 hPa 0,0 l/m 2,4 km/h (1 Bft) S 180 2,2 C 2,6 C 3,4 km/h (1 Bft)
10.11.2013 04:25 2,6 C 97 % 1010,2 hPa 0,0 l/m 2,4 km/h (1 Bft) O-SO 112 2,2 C 2,6 C 0,0 km/h (0 Bft)
10.11.2013 04:30 2,5 C 97 % 1009,9 hPa 0,0 l/m 1,1 km/h (1 Bft) S-SW 202 2,1 C 2,6 C 1,8 km/h (1 Bft)
10.11.2013 04:35 2,4 C 97 % 1009,9 hPa 0,0 l/m 0,5 km/h (0 Bft) W-NW 292 2,0 C 2,5 C 0,0 km/h (0 Bft)
10.11.2013 04:40 2,3 C 97 % 1009,9 hPa 0,0 l/m 0,2 km/h (0 Bft) W-NW 292 1,9 C 2,3 C 0,0 km/h (0 Bft)
10.11.2013 04:45 2,3 C 97 % 1009,9 hPa 0,0 l/m 0,2 km/h (0 Bft) O 90 1,9 C 2,2 C 0,0 km/h (0 Bft)
10.11.2013 04:50 2,2 C 97 % 1009,6 hPa 0,0 l/m 0,5 km/h (0 Bft) S 180 1,8 C 2,1 C 2,7 km/h (1 Bft)
10.11.2013 04:55 2,1 C 97 % 1009,6 hPa 0,0 l/m 1,1 km/h (1 Bft) S 180 1,7 C 2,1 C 0,0 km/h (0 Bft)
10.11.2013 05:00 2,1 C 97 % 1009,6 hPa 0,0 l/m 1,0 km/h (0 Bft) SO 135 1,7 C 1,9 C 0,0 km/h (0 Bft)
10.11.2013 05:05 1,7 C 97 % 1009,6 hPa 0,0 l/m 0,0 km/h (0 Bft) SO 135 1,3 C 1,6 C 0,0 km/h (0 Bft)
10.11.2013 05:10 1,1 C 97 % 1009,4 hPa 0,0 l/m 0,0 km/h (0 Bft) W-SW 247 0,7 C 1,1 C 0,0 km/h (0 Bft)
10.11.2013 05:15 1,2 C 97 % 1009,4 hPa 0,0 l/m 0,0 km/h (0 Bft) N 360 0,8 C 0,8 C 0,0 km/h (0 Bft)
10.11.2013 05:20 0,9 C 97 % 1009,4 hPa 0,0 l/m 0,3 km/h (0 Bft) W-SW 247 0,5 C 0,7 C 3,1 km/h (1 Bft)
10.11.2013 05:25 0,7 C 97 % 1009,4 hPa 0,0 l/m 0,5 km/h (0 Bft) S-SO 157 0,3 C 0,6 C 1,9 km/h (1 Bft)
10.11.2013 05:30 0,5 C 97 % 1008,9 hPa 0,0 l/m 0,5 km/h (0 Bft) O 90 0,1 C 0,3 C 0,0 km/h (0 Bft)
10.11.2013 05:35 0,6 C 97 % 1008,9 hPa 0,0 l/m 0,2 km/h (0 Bft) NO 45 0,2 C 0,1 C 0,0 km/h (0 Bft)
10.11.2013 05:40 0,3 C 97 % 1008,9 hPa 0,0 l/m 0,2 km/h (0 Bft) NW 315 -0,1 C -0,1 C 0,0 km/h (0 Bft)
10.11.2013 05:45 0,2 C 97 % 1008,9 hPa 0,0 l/m 0,0 km/h (0 Bft) N-NW 337 -0,2 C -0,2 C 0,0 km/h (0 Bft)
10.11.2013 05:50 0,1 C 97 % 1008,4 hPa 0,0 l/m 0,0 km/h (0 Bft) NW 315 -0,3 C -0,3 C 0,0 km/h (0 Bft)
10.11.2013 05:55 0,3 C 97 % 1008,4 hPa 0,0 l/m 0,3 km/h (0 Bft) W-NW 292 -0,1 C -0,2 C 0,0 km/h (0 Bft)
10.11.2013 06:00 0,0 C 97 % 1008,4 hPa 0,0 l/m 0,3 km/h (0 Bft) W-SW 247 -0,4 C -0,3 C 1,6 km/h (1 Bft)
10.11.2013 06:05 0,2 C 97 % 1008,4 hPa 0,0 l/m 0,2 km/h (0 Bft) SO 135 -0,2 C -0,4 C 1,9 km/h (1 Bft)
10.11.2013 06:10 0,2 C 97 % 1008,0 hPa 0,0 l/m 0,2 km/h (0 Bft) S 180 -0,2 C -0,4 C 0,0 km/h (0 Bft)
10.11.2013 06:15 0,1 C 97 % 1008,0 hPa 0,0 l/m 0,2 km/h (0 Bft) W 270 -0,3 C -0,5 C 0,0 km/h (0 Bft)
10.11.2013 06:20 -0,3 C 97 % 1008,0 hPa 0,0 l/m 0,0 km/h (0 Bft) W-NW 292 -0,7 C -0,6 C 0,0 km/h (0 Bft)
10.11.2013 06:25 -0,3 C 97 % 1008,0 hPa 0,0 l/m 0,2 km/h (0 Bft) O-SO 112 -0,7 C -0,8 C 1,6 km/h (1 Bft)
10.11.2013 06:30 -0,1 C 97 % 1007,3 hPa 0,0 l/m 0,6 km/h (0 Bft) W-NW 292 -0,5 C -0,6 C 0,0 km/h (0 Bft)
10.11.2013 06:35 0,0 C 97 % 1007,3 hPa 0,0 l/m 0,8 km/h (0 Bft) O-NO 67 -0,4 C -0,5 C 2,6 km/h (1 Bft)
10.11.2013 06:40 0,2 C 97 % 1007,3 hPa 0,0 l/m 0,6 km/h (0 Bft) SO 135 -0,2 C -0,5 C 0,0 km/h (0 Bft)
10.11.2013 06:45 0,2 C 97 % 1007,3 hPa 0,0 l/m 0,3 km/h (0 Bft) O 90 -0,2 C -0,5 C 2,1 km/h (1 Bft)
10.11.2013 06:50 0,1 C 97 % 1007,2 hPa 0,0 l/m 0,2 km/h (0 Bft) S-SW 202 -0,3 C -0,4 C 0,0 km/h (0 Bft)
10.11.2013 06:55 0,3 C 97 % 1007,2 hPa 0,0 l/m 1,0 km/h (0 Bft) O-NO 67 -0,1 C -0,4 C 4,0 km/h (1 Bft)
10.11.2013 07:00 0,4 C 97 % 1007,2 hPa 0,0 l/m 1,6 km/h (1 Bft) NO 45 -0,0 C -0,2 C 0,0 km/h (0 Bft)
10.11.2013 07:05 0,2 C 97 % 1007,2 hPa 0,0 l/m 0,8 km/h (0 Bft) O 90 -0,2 C -0,3 C 0,0 km/h (0 Bft)
10.11.2013 07:10 0,0 C 97 % 1006,8 hPa 0,0 l/m 0,8 km/h (0 Bft) O-SO 112 -0,4 C -0,3 C 2,7 km/h (1 Bft)
10.11.2013 07:15 0,2 C 97 % 1006,8 hPa 0,0 l/m 2,1 km/h (1 Bft) NO 45 -0,2 C -0,3 C 3,9 km/h (1 Bft)
10.11.2013 07:20 0,5 C 97 % 1006,8 hPa 0,0 l/m 2,7 km/h (1 Bft) O-NO 67 0,1 C -0,3 C 3,5 km/h (1 Bft)
10.11.2013 07:25 0,5 C 97 % 1006,8 hPa 0,0 l/m 2,1 km/h (1 Bft) W-NW 292 0,1 C 0,1 C 1,9 km/h (1 Bft)
10.11.2013 07:30 0,2 C 97 % 1006,6 hPa 0,0 l/m 1,1 km/h (1 Bft) W-NW 292 -0,2 C 0,1 C 0,0 km/h (0 Bft)
10.11.2013 07:35 0,2 C 97 % 1006,6 hPa 0,0 l/m 0,3 km/h (0 Bft) N-NO 22 -0,2 C 0,0 C 0,0 km/h (0 Bft)
10.11.2013 07:40 0,2 C 97 % 1006,6 hPa 0,0 l/m 0,2 km/h (0 Bft) W-SW 247 -0,2 C 0,0 C 0,0 km/h (0 Bft)
10.11.2013 07:45 0,2 C 97 % 1006,6 hPa 0,0 l/m 0,6 km/h (0 Bft) W-SW 247 -0,2 C 0,0 C 2,3 km/h (1 Bft)
10.11.2013 07:50 0,3 C 97 % 1006,2 hPa 0,0 l/m 0,6 km/h (0 Bft) O-SO 112 -0,1 C 0,0 C 0,0 km/h (0 Bft)
10.11.2013 07:53 0,3 C 97 % 1006,2 hPa 0,0 l/m 0,6 km/h (0 Bft) O-SO 112 -0,1 C 0,0 C 0,0 km/h (0 Bft)
10.11.2013 07:55 0,3 C 97 % 1006,2 hPa 0,0 l/m 0,6 km/h (0 Bft) O-SO 112 -0,1 C 0,0 C 0,0 km/h (0 Bft)
10.11.2013 08:00 0,7 C 97 % 1006,2 hPa 0,0 l/m 0,5 km/h (0 Bft) N-NO 22 0,3 C 0,0 C 1,8 km/h (1 Bft)
10.11.2013 08:05 0,7 C 97 % 1006,2 hPa 0,0 l/m 1,0 km/h (0 Bft) N 360 0,3 C 0,4 C 0,0 km/h (0 Bft)
10.11.2013 08:10 0,7 C 97 % 1005,7 hPa 0,0 l/m 0,2 km/h (0 Bft) N 360 0,3 C 0,6 C 0,0 km/h (0 Bft)
10.11.2013 08:15 1,0 C 97 % 1005,7 hPa 0,0 l/m 0,0 km/h (0 Bft) N 360 0,6 C 0,7 C 0,0 km/h (0 Bft)
10.11.2013 08:20 1,0 C 97 % 1005,7 hPa 0,0 l/m 0,0 km/h (0 Bft) N-NW 337 0,6 C 0,8 C 0,0 km/h (0 Bft)
10.11.2013 08:25 1,1 C 97 % 1005,7 hPa 0,0 l/m 0,2 km/h (0 Bft) S-SW 202 0,7 C 0,9 C 2,3 km/h (1 Bft)
10.11.2013 08:30 1,1 C 97 % 1005,8 hPa 0,0 l/m 0,5 km/h (0 Bft) S 180 0,7 C 1,1 C 0,0 km/h (0 Bft)
10.11.2013 08:35 1,1 C 97 % 1005,8 hPa 0,0 l/m 0,3 km/h (0 Bft) S 180 0,7 C 1,1 C 0,0 km/h (0 Bft)
10.11.2013 08:40 1,3 C 97 % 1005,8 hPa 0,0 l/m 0,5 km/h (0 Bft) S 180 0,9 C 1,2 C 0,0 km/h (0 Bft)
10.11.2013 08:45 1,4 C 97 % 1005,8 hPa 0,0 l/m 0,5 km/h (0 Bft) W-SW 247 1,0 C 1,3 C 1,6 km/h (1 Bft)
10.11.2013 08:50 1,4 C 97 % 1005,5 hPa 0,0 l/m 0,2 km/h (0 Bft) S 180 1,0 C 1,4 C 0,0 km/h (0 Bft)
10.11.2013 08:55 1,4 C 97 % 1005,5 hPa 0,0 l/m 0,0 km/h (0 Bft) W-SW 247 1,0 C 1,4 C 0,0 km/h (0 Bft)
10.11.2013 09:00 1,4 C 97 % 1005,5 hPa 0,0 l/m 0,0 km/h (0 Bft) S 180 1,0 C 1,4 C 0,0 km/h (0 Bft)
10.11.2013 09:05 1,5 C 97 % 1005,5 hPa 0,0 l/m 0,3 km/h (0 Bft) S 180 1,1 C 1,4 C 1,8 km/h (1 Bft)
10.11.2013 09:10 1,6 C 97 % 1005,3 hPa 0,0 l/m 0,3 km/h (0 Bft) S 180 1,2 C 1,5 C 0,0 km/h (0 Bft)
10.11.2013 09:15 1,8 C 97 % 1005,3 hPa 0,0 l/m 0,2 km/h (0 Bft) S 180 1,4 C 1,5 C 0,0 km/h (0 Bft)
10.11.2013 09:20 1,9 C 97 % 1005,3 hPa 0,0 l/m 0,0 km/h (0 Bft) W 270 1,5 C 1,7 C 1,6 km/h (1 Bft)
10.11.2013 09:25 1,9 C 97 % 1005,3 hPa 0,0 l/m 0,2 km/h (0 Bft) W 270 1,5 C 1,8 C 0,0 km/h (0 Bft)
10.11.2013 09:30 2,0 C 97 % 1004,9 hPa 0,0 l/m 0,2 km/h (0 Bft) W 270 1,6 C 1,9 C 0,0 km/h (0 Bft)
10.11.2013 09:35 2,0 C 97 % 1004,9 hPa 0,0 l/m 0,2 km/h (0 Bft) NO 45 1,6 C 2,0 C 2,6 km/h (1 Bft)
10.11.2013 09:40 2,2 C 97 % 1004,9 hPa 0,0 l/m 0,6 km/h (0 Bft) W-NW 292 1,8 C 2,1 C 1,8 km/h (1 Bft)
10.11.2013 09:45 2,4 C 97 % 1004,9 hPa 0,0 l/m 1,6 km/h (1 Bft) W-NW 292 2,0 C 2,2 C 3,1 km/h (1 Bft)
10.11.2013 09:50 2,5 C 97 % 1005,0 hPa 0,0 l/m 2,4 km/h (1 Bft) O-NO 67 2,1 C 2,4 C 3,2 km/h (1 Bft)
10.11.2013 09:55 2,7 C 97 % 1005,0 hPa 0,0 l/m 2,7 km/h (1 Bft) S-SO 157 2,3 C 2,6 C 3,9 km/h (1 Bft)
10.11.2013 10:00 2,8 C 97 % 1005,0 hPa 0,0 l/m 3,7 km/h (1 Bft) S-SW 202 2,4 C 2,2 C 7,9 km/h (2 Bft)
10.11.2013 10:05 2,8 C 96 % 1005,0 hPa 0,0 l/m 3,2 km/h (1 Bft) N 360 2,2 C 2,4 C 2,9 km/h (1 Bft)
10.11.2013 10:10 2,9 C 96 % 1004,8 hPa 0,0 l/m 2,1 km/h (1 Bft) S-SW 202 2,3 C 3,0 C 2,3 km/h (1 Bft)
10.11.2013 10:15 3,0 C 95 % 1004,8 hPa 0,0 l/m 1,6 km/h (1 Bft) O-SO 112 2,3 C 3,1 C 0,0 km/h (0 Bft)
10.11.2013 10:20 3,2 C 95 % 1004,8 hPa 0,0 l/m 0,8 km/h (0 Bft) SO 135 2,5 C 3,2 C 0,0 km/h (0 Bft)
10.11.2013 10:25 3,3 C 95 % 1004,8 hPa 0,0 l/m 0,6 km/h (0 Bft) S 180 2,6 C 3,3 C 2,3 km/h (1 Bft)
10.11.2013 10:30 3,5 C 95 % 1004,6 hPa 0,0 l/m 0,2 km/h (0 Bft) S 180 2,8 C 3,6 C 0,0 km/h (0 Bft)
10.11.2013 10:35 3,6 C 95 % 1004,6 hPa 0,0 l/m 0,5 km/h (0 Bft) S-SO 157 2,9 C 3,7 C 2,9 km/h (1 Bft)
10.11.2013 10:40 3,6 C 95 % 1004,6 hPa 0,0 l/m 1,4 km/h (1 Bft) S 180 2,9 C 3,8 C 2,7 km/h (1 Bft)
10.11.2013 10:45 3,5 C 95 % 1004,6 hPa 0,0 l/m 2,6 km/h (1 Bft) S-SO 157 2,8 C 3,9 C 3,5 km/h (1 Bft)
10.11.2013 10:50 3,5 C 95 % 1004,6 hPa 0,0 l/m 2,1 km/h (1 Bft) S 180 2,8 C 3,8 C 3,4 km/h (1 Bft)
10.11.2013 10:55 3,5 C 95 % 1004,6 hPa 0,0 l/m 1,6 km/h (1 Bft) SO 135 2,8 C 3,8 C 2,4 km/h (1 Bft)
10.11.2013 11:00 3,6 C 94 % 1004,6 hPa 0,0 l/m 2,1 km/h (1 Bft) N 360 2,7 C 3,8 C 3,2 km/h (1 Bft)
10.11.2013 11:05 3,7 C 93 % 1004,6 hPa 0,0 l/m 3,1 km/h (1 Bft) N-NO 22 2,7 C 3,8 C 2,4 km/h (1 Bft)
10.11.2013 11:10 4,0 C 93 % 1003,9 hPa 0,0 l/m 2,7 km/h (1 Bft) W-SW 247 3,0 C 4,1 C 3,1 km/h (1 Bft)
10.11.2013 11:15 4,3 C 93 % 1003,9 hPa 0,0 l/m 1,8 km/h (1 Bft) S 180 3,3 C 4,3 C 3,5 km/h (1 Bft)
10.11.2013 11:20 4,6 C 93 % 1003,9 hPa 0,0 l/m 1,6 km/h (1 Bft) W-NW 292 3,6 C 5,0 C 0,0 km/h (0 Bft)
10.11.2013 11:25 4,7 C 90 % 1003,9 hPa 0,0 l/m 2,6 km/h (1 Bft) N-NW 337 3,2 C 5,3 C 4,7 km/h (1 Bft)
10.11.2013 11:30 4,9 C 89 % 1003,6 hPa 0,0 l/m 3,4 km/h (1 Bft) W-NW 292 3,2 C 5,4 C 7,1 km/h (2 Bft)
10.11.2013 11:35 4,9 C 89 % 1003,6 hPa 0,0 l/m 4,3 km/h (1 Bft) N 360 3,2 C 4,9 C 4,3 km/h (1 Bft)
10.11.2013 11:40 4,6 C 89 % 1003,6 hPa 0,0 l/m 3,9 km/h (1 Bft) W-NW 292 2,9 C 5,0 C 1,9 km/h (1 Bft)
10.11.2013 11:45 4,5 C 88 % 1003,6 hPa 0,0 l/m 2,6 km/h (1 Bft) N-NW 337 2,7 C 5,3 C 2,6 km/h (1 Bft)
10.11.2013 11:50 4,5 C 86 % 1003,5 hPa 0,0 l/m 2,4 km/h (1 Bft) NW 315 2,4 C 5,2 C 1,9 km/h (1 Bft)
10.11.2013 11:55 4,8 C 87 % 1003,5 hPa 0,0 l/m 1,8 km/h (1 Bft) W-NW 292 2,8 C 5,3 C 0,0 km/h (0 Bft)
10.11.2013 12:00 5,0 C 87 % 1003,5 hPa 0,0 l/m 0,6 km/h (0 Bft) W-SW 247 3,0 C 5,6 C 1,6 km/h (1 Bft)
10.11.2013 12:05 4,8 C 87 % 1003,5 hPa 0,0 l/m 1,3 km/h (1 Bft) N-NO 22 2,8 C 5,5 C 0,0 km/h (0 Bft)
10.11.2013 12:10 4,6 C 88 % 1003,9 hPa 0,0 l/m 1,8 km/h (1 Bft) S-SW 202 2,8 C 5,4 C 5,8 km/h (2 Bft)
10.11.2013 12:15 4,7 C 87 % 1003,9 hPa 0,0 l/m 2,7 km/h (1 Bft) SW 225 2,7 C 5,3 C 2,9 km/h (1 Bft)
10.11.2013 12:20 5,1 C 87 % 1003,9 hPa 0,0 l/m 3,1 km/h (1 Bft) W-NW 292 3,1 C 5,4 C 3,4 km/h (1 Bft)
10.11.2013 12:25 5,2 C 87 % 1003,9 hPa 0,0 l/m 1,9 km/h (1 Bft) S 180 3,2 C 5,6 C 0,0 km/h (0 Bft)
10.11.2013 12:30 5,2 C 83 % 1003,6 hPa 0,0 l/m 1,4 km/h (1 Bft) NO 45 2,6 C 6,1 C 3,5 km/h (1 Bft)
10.11.2013 12:35 5,2 C 84 % 1003,6 hPa 0,0 l/m 1,0 km/h (0 Bft) N-NO 22 2,7 C 6,1 C 0,0 km/h (0 Bft)
10.11.2013 12:40 5,0 C 84 % 1003,6 hPa 0,0 l/m 0,3 km/h (0 Bft) N 360 2,5 C 6,0 C 0,0 km/h (0 Bft)
10.11.2013 12:45 5,1 C 85 % 1003,6 hPa 0,0 l/m 0,3 km/h (0 Bft) NW 315 2,8 C 6,0 C 2,7 km/h (1 Bft)
10.11.2013 12:50 5,5 C 86 % 1003,2 hPa 0,0 l/m 0,6 km/h (0 Bft) W-NW 292 3,3 C 6,1 C 0,0 km/h (0 Bft)
10.11.2013 12:53 5,5 C 84 % 1003,2 hPa 0,0 l/m 0,3 km/h (0 Bft) NO 45 3,0 C 6,2 C 1,8 km/h (1 Bft)
10.11.2013 12:55 5,5 C 84 % 1003,2 hPa 0,0 l/m 0,3 km/h (0 Bft) NO 45 3,0 C 6,2 C 1,8 km/h (1 Bft)
10.11.2013 13:00 5,7 C 85 % 1003,2 hPa 0,0 l/m 0,3 km/h (0 Bft) NW 315 3,4 C 6,3 C 0,0 km/h (0 Bft)
10.11.2013 13:05 5,6 C 85 % 1003,2 hPa 0,0 l/m 0,3 km/h (0 Bft) NW 315 3,3 C 6,5 C 2,4 km/h (1 Bft)
10.11.2013 13:10 5,7 C 84 % 1003,1 hPa 0,0 l/m 0,5 km/h (0 Bft) NW 315 3,2 C 6,5 C 3,2 km/h (1 Bft)
10.11.2013 13:15 5,7 C 79 % 1003,1 hPa 0,0 l/m 2,3 km/h (1 Bft) N-NW 337 2,3 C 6,5 C 5,3 km/h (1 Bft)
10.11.2013 13:20 5,8 C 80 % 1003,1 hPa 0,0 l/m 2,6 km/h (1 Bft) N-NO 22 2,6 C 6,5 C 3,2 km/h (1 Bft)
10.11.2013 13:25 5,8 C 80 % 1003,1 hPa 0,0 l/m 1,8 km/h (1 Bft) S-SW 202 2,6 C 6,5 C 1,8 km/h (1 Bft)
10.11.2013 13:30 5,9 C 79 % 1003,1 hPa 0,0 l/m 0,6 km/h (0 Bft) W-NW 292 2,5 C 6,6 C 0,0 km/h (0 Bft)
10.11.2013 13:35 5,9 C 80 % 1003,1 hPa 0,0 l/m 0,6 km/h (0 Bft) W-SW 247 2,7 C 6,6 C 3,1 km/h (1 Bft)
10.11.2013 13:40 5,9 C 82 % 1003,1 hPa 0,0 l/m 0,6 km/h (0 Bft) S 180 3,1 C 6,5 C 2,3 km/h (1 Bft)
10.11.2013 13:45 5,9 C 81 % 1003,1 hPa 0,0 l/m 1,4 km/h (1 Bft) SO 135 2,9 C 6,5 C 0,0 km/h (0 Bft)
10.11.2013 13:50 6,3 C 82 % 1003,6 hPa 0,0 l/m 1,8 km/h (1 Bft) S 180 3,5 C 6,5 C 0,0 km/h (0 Bft)
10.11.2013 13:55 6,4 C 81 % 1003,6 hPa 0,0 l/m 0,8 km/h (0 Bft) SO 135 3,4 C 6,6 C 3,5 km/h (1 Bft)
10.11.2013 14:00 6,2 C 80 % 1003,6 hPa 0,0 l/m 0,3 km/h (0 Bft) S 180 3,0 C 6,8 C 0,0 km/h (0 Bft)
10.11.2013 14:05 6,2 C 80 % 1003,6 hPa 0,0 l/m 0,3 km/h (0 Bft) O 90 3,0 C 6,9 C 0,0 km/h (0 Bft)
10.11.2013 14:10 6,2 C 81 % 1003,4 hPa 0,0 l/m 0,2 km/h (0 Bft) S-SW 202 3,2 C 6,8 C 3,4 km/h (1 Bft)
10.11.2013 14:15 6,0 C 80 % 1003,4 hPa 0,0 l/m 0,8 km/h (0 Bft) S-SW 202 2,8 C 6,6 C 2,1 km/h (1 Bft)
10.11.2013 14:20 5,8 C 82 % 1003,4 hPa 0,0 l/m 1,8 km/h (1 Bft) S 180 3,0 C 6,2 C 2,1 km/h (1 Bft)
10.11.2013 14:25 5,5 C 81 % 1003,4 hPa 0,0 l/m 3,5 km/h (1 Bft) S-SW 202 2,5 C 5,7 C 7,9 km/h (2 Bft)
10.11.2013 14:30 5,2 C 82 % 1004,6 hPa 0,0 l/m 4,8 km/h (1 Bft) SO 135 2,4 C 4,8 C 8,9 km/h (2 Bft)
10.11.2013 14:35 4,8 C 83 % 1004,6 hPa 0,7 l/m 4,8 km/h (1 Bft) SO 135 2,2 C 4,8 C 7,2 km/h (2 Bft)
10.11.2013 14:40 4,4 C 86 % 1004,6 hPa 0,0 l/m 7,4 km/h (2 Bft) S-SO 157 2,3 C 1,7 C 13,5 km/h (3 Bft)
10.11.2013 14:45 4,2 C 88 % 1004,6 hPa 0,7 l/m 6,3 km/h (2 Bft) O-NO 67 2,4 C 2,8 C 4,7 km/h (1 Bft)
10.11.2013 14:50 4,3 C 89 % 1004,9 hPa 0,7 l/m 4,3 km/h (1 Bft) S-SO 157 2,7 C 3,6 C 0,0 km/h (0 Bft)
10.11.2013 14:55 4,5 C 90 % 1004,9 hPa 0,0 l/m 2,9 km/h (1 Bft) S 180 3,0 C 4,4 C 3,5 km/h (1 Bft)
10.11.2013 15:00 4,5 C 91 % 1004,9 hPa 0,0 l/m 4,7 km/h (1 Bft) S-SO 157 3,2 C 3,5 C 9,2 km/h (2 Bft)
10.11.2013 15:05 4,6 C 91 % 1004,9 hPa 0,0 l/m 7,4 km/h (2 Bft) S-SO 157 3,3 C 1,7 C 29,9 km/h (5 Bft)
10.11.2013 15:10 4,4 C 91 % 1005,5 hPa 0,0 l/m 16,1 km/h (3 Bft) W-SW 247 3,1 C -6,6 C 44,9 km/h (6 Bft)
10.11.2013 15:15 4,1 C 90 % 1005,5 hPa 0,7 l/m 19,6 km/h (3 Bft) S 180 2,6 C -9,3 C 15,3 km/h (3 Bft)
10.11.2013 15:20 3,7 C 91 % 1005,5 hPa 0,0 l/m 18,5 km/h (3 Bft) S 180 2,4 C -9,2 C 34,4 km/h (5 Bft)
10.11.2013 15:25 3,5 C 91 % 1005,5 hPa 0,0 l/m 17,4 km/h (3 Bft) S 180 2,2 C -8,7 C 29,3 km/h (5 Bft)
10.11.2013 15:30 3,1 C 91 % 1006,4 hPa 0,0 l/m 19,5 km/h (3 Bft) S 180 1,8 C -10,9 C 19,3 km/h (3 Bft)
10.11.2013 15:35 3,0 C 91 % 1006,4 hPa 0,0 l/m 19,0 km/h (3 Bft) S-SO 157 1,7 C -10,8 C 20,1 km/h (4 Bft)
10.11.2013 15:40 2,9 C 93 % 1006,4 hPa 0,0 l/m 16,9 km/h (3 Bft) S 180 1,9 C -9,6 C 26,7 km/h (4 Bft)
10.11.2013 15:45 2,7 C 93 % 1006,4 hPa 0,0 l/m 17,7 km/h (3 Bft) S 180 1,7 C -10,3 C 21,7 km/h (4 Bft)
10.11.2013 15:50 2,5 C 93 % 1007,3 hPa 0,7 l/m 18,0 km/h (3 Bft) S 180 1,5 C -10,9 C 19,6 km/h (3 Bft)
10.11.2013 15:55 2,4 C 93 % 1007,3 hPa 0,0 l/m 16,1 km/h (3 Bft) S 180 1,4 C -9,7 C 18,8 km/h (3 Bft)
10.11.2013 16:00 2,3 C 93 % 1007,3 hPa 0,0 l/m 15,1 km/h (3 Bft) S-SW 202 1,3 C -9,0 C 21,1 km/h (4 Bft)
10.11.2013 16:05 2,2 C 93 % 1007,3 hPa 0,0 l/m 15,4 km/h (3 Bft) S-SO 157 1,2 C -9,4 C 15,6 km/h (3 Bft)
10.11.2013 16:10 2,1 C 93 % 1008,2 hPa 0,0 l/m 17,7 km/h (3 Bft) S-SO 157 1,1 C -11,4 C 25,4 km/h (4 Bft)
10.11.2013 16:15 2,0 C 93 % 1008,2 hPa 0,7 l/m 17,2 km/h (3 Bft) S-SW 202 1,0 C -11,1 C 13,2 km/h (3 Bft)
10.11.2013 16:20 1,9 C 93 % 1008,2 hPa 0,0 l/m 15,0 km/h (3 Bft) S-SW 202 0,9 C -9,5 C 17,4 km/h (3 Bft)
10.11.2013 16:25 1,8 C 93 % 1008,2 hPa 0,0 l/m 14,2 km/h (3 Bft) S-SO 157 0,8 C -9,1 C 12,1 km/h (2 Bft)
10.11.2013 16:30 1,6 C 94 % 1009,2 hPa 0,0 l/m 13,4 km/h (3 Bft) S 180 0,7 C -8,7 C 20,1 km/h (4 Bft)
10.11.2013 16:35 1,5 C 94 % 1009,2 hPa 0,0 l/m 12,4 km/h (3 Bft) S 180 0,6 C -7,8 C 18,7 km/h (3 Bft)
10.11.2013 16:40 1,4 C 94 % 1009,2 hPa 0,0 l/m 12,2 km/h (2 Bft) S-SW 202 0,5 C -7,9 C 12,2 km/h (2 Bft)
10.11.2013 16:45 1,4 C 94 % 1009,2 hPa 0,0 l/m 10,6 km/h (2 Bft) W-SW 247 0,5 C -6,2 C 9,8 km/h (2 Bft)
10.11.2013 16:50 1,3 C 94 % 1010,1 hPa 0,0 l/m 10,0 km/h (2 Bft) SO 135 0,4 C -5,7 C 10,8 km/h (2 Bft)
10.11.2013 16:55 1,3 C 94 % 1010,1 hPa 0,0 l/m 10,0 km/h (2 Bft) S 180 0,4 C -5,7 C 11,9 km/h (2 Bft)
10.11.2013 17:00 1,3 C 94 % 1010,1 hPa 0,0 l/m 12,7 km/h (3 Bft) S 180 0,4 C -8,5 C 16,7 km/h (3 Bft)
10.11.2013 17:05 1,2 C 95 % 1010,1 hPa 0,0 l/m 13,5 km/h (3 Bft) S-SW 202 0,5 C -9,5 C 19,0 km/h (3 Bft)
10.11.2013 17:10 1,1 C 95 % 1010,6 hPa 0,0 l/m 12,4 km/h (3 Bft) S 180 0,4 C -8,5 C 14,3 km/h (3 Bft)
10.11.2013 17:15 1,0 C 95 % 1010,6 hPa 0,0 l/m 11,1 km/h (2 Bft) O 90 0,3 C -7,4 C 17,4 km/h (3 Bft)
10.11.2013 17:20 0,9 C 95 % 1010,6 hPa 0,0 l/m 11,7 km/h (2 Bft) S-SO 157 0,2 C -8,1 C 14,8 km/h (3 Bft)
10.11.2013 17:25 0,9 C 95 % 1010,6 hPa 0,0 l/m 12,4 km/h (3 Bft) S 180 0,2 C -9,0 C 16,9 km/h (3 Bft)
10.11.2013 17:30 0,9 C 95 % 1011,2 hPa 0,0 l/m 10,9 km/h (2 Bft) W-SW 247 0,2 C -7,2 C 16,1 km/h (3 Bft)
10.11.2013 17:35 0,7 C 95 % 1011,2 hPa 0,0 l/m 10,5 km/h (2 Bft) SO 135 -0,0 C -6,9 C 10,5 km/h (2 Bft)
10.11.2013 17:40 0,6 C 95 % 1011,2 hPa 0,0 l/m 10,5 km/h (2 Bft) S-SO 157 -0,1 C -7,0 C 11,3 km/h (2 Bft)
10.11.2013 17:45 0,6 C 95 % 1011,2 hPa 0,0 l/m 10,3 km/h (2 Bft) S 180 -0,1 C -6,9 C 13,2 km/h (3 Bft)
10.11.2013 17:50 0,5 C 95 % 1011,9 hPa 0,0 l/m 10,0 km/h (2 Bft) S-SW 202 -0,2 C -6,5 C 9,5 km/h (2 Bft)
10.11.2013 17:53 0,6 C 95 % 1011,9 hPa 0,0 l/m 10,9 km/h (2 Bft) S 180 -0,1 C -7,7 C 14,3 km/h (3 Bft)
10.11.2013 17:55 0,6 C 95 % 1011,9 hPa 0,0 l/m 10,9 km/h (2 Bft) S 180 -0,1 C -7,7 C 14,3 km/h (3 Bft)
10.11.2013 18:00 0,6 C 95 % 1011,9 hPa 0,0 l/m 11,3 km/h (2 Bft) SO 135 -0,1 C -8,1 C 15,3 km/h (3 Bft)
10.11.2013 18:05 0,6 C 95 % 1011,9 hPa 0,0 l/m 11,1 km/h (2 Bft) S 180 -0,1 C -7,9 C 13,7 km/h (3 Bft)
10.11.2013 18:10 0,6 C 96 % 1012,5 hPa 0,0 l/m 9,7 km/h (2 Bft) SO 135 0,0 C -6,2 C 15,6 km/h (3 Bft)
10.11.2013 18:15 0,5 C 96 % 1012,5 hPa 0,7 l/m 9,5 km/h (2 Bft) S 180 -0,1 C -6,0 C 12,2 km/h (2 Bft)
10.11.2013 18:20 0,6 C 96 % 1012,5 hPa 0,0 l/m 10,8 km/h (2 Bft) S 180 0,0 C -7,6 C 12,2 km/h (2 Bft)
10.11.2013 18:25 0,5 C 96 % 1012,5 hPa 0,0 l/m 10,5 km/h (2 Bft) S-SO 157 -0,1 C -7,1 C 12,9 km/h (3 Bft)
10.11.2013 18:30 0,5 C 96 % 1013,1 hPa 0,0 l/m 10,5 km/h (2 Bft) S-SO 157 -0,1 C -7,1 C 12,9 km/h (3 Bft)
10.11.2013 18:35 0,5 C 96 % 1013,1 hPa 0,0 l/m 10,5 km/h (2 Bft) S-SO 157 -0,1 C -7,1 C 12,9 km/h (3 Bft)
10.11.2013 18:40 0,4 C 96 % 1013,1 hPa 0,0 l/m 9,3 km/h (2 Bft) S 180 -0,2 C -5,8 C 12,1 km/h (2 Bft)
10.11.2013 18:45 0,5 C 96 % 1013,1 hPa 0,0 l/m 9,2 km/h (2 Bft) S 180 -0,1 C -5,6 C 16,7 km/h (3 Bft)
10.11.2013 18:50 0,5 C 96 % 1013,6 hPa 0,0 l/m 9,8 km/h (2 Bft) S 180 -0,1 C -6,4 C 12,6 km/h (3 Bft)
10.11.2013 18:55 0,5 C 96 % 1013,6 hPa 0,0 l/m 9,7 km/h (2 Bft) S-SO 157 -0,1 C -6,2 C 8,9 km/h (2 Bft)
10.11.2013 19:00 0,4 C 96 % 1013,6 hPa 0,0 l/m 8,0 km/h (2 Bft) S 180 -0,2 C -4,1 C 5,8 km/h (2 Bft)
10.11.2013 19:05 0,4 C 96 % 1013,6 hPa 0,0 l/m 6,6 km/h (2 Bft) SO 135 -0,2 C -2,1 C 9,0 km/h (2 Bft)
10.11.2013 19:10 0,4 C 96 % 1014,0 hPa 0,0 l/m 4,7 km/h (1 Bft) S 180 -0,2 C -1,1 C 0,0 km/h (0 Bft)
10.11.2013 19:15 0,4 C 96 % 1014,0 hPa 0,0 l/m 4,7 km/h (1 Bft) S 180 -0,2 C -1,1 C 0,0 km/h (0 Bft)
10.11.2013 19:20 0,3 C 96 % 1014,0 hPa 0,0 l/m 4,7 km/h (1 Bft) S 180 -0,3 C -1,1 C 0,0 km/h (0 Bft)
10.11.2013 19:25 0,3 C 96 % 1014,0 hPa 0,0 l/m 0,0 km/h (0 Bft) S 180 -0,3 C -1,1 C 0,0 km/h (0 Bft)
10.11.2013 19:30 0,3 C 96 % 1014,5 hPa 0,0 l/m 0,0 km/h (0 Bft) S 180 -0,3 C -1,1 C 0,0 km/h (0 Bft)
10.11.2013 19:35 0,3 C 96 % 1014,5 hPa 0,0 l/m 0,0 km/h (0 Bft) S 180 -0,3 C -1,1 C 0,0 km/h (0 Bft)
10.11.2013 19:40 0,3 C 96 % 1014,5 hPa 0,0 l/m 0,0 km/h (0 Bft) S 180 -0,3 C -1,1 C 0,0 km/h (0 Bft)
10.11.2013 19:45 0,4 C 96 % 1014,5 hPa 0,0 l/m 0,0 km/h (0 Bft) S 180 -0,2 C -1,1 C 0,0 km/h (0 Bft)
10.11.2013 19:50 0,4 C 96 % 1015,1 hPa 0,0 l/m 0,0 km/h (0 Bft) S 180 -0,2 C -1,1 C 0,0 km/h (0 Bft)
10.11.2013 19:55 0,4 C 97 % 1015,1 hPa 0,0 l/m 0,0 km/h (0 Bft) S 180 -0,0 C -1,1 C 0,0 km/h (0 Bft)
10.11.2013 20:00 0,4 C 97 % 1015,1 hPa 0,0 l/m 0,0 km/h (0 Bft) S 180 -0,0 C -1,1 C 0,0 km/h (0 Bft)
10.11.2013 20:05 0,4 C 97 % 1015,1 hPa 0,0 l/m 0,0 km/h (0 Bft) S 180 -0,0 C -1,1 C 0,0 km/h (0 Bft)
10.11.2013 20:10 0,4 C 97 % 1015,4 hPa 0,0 l/m 0,0 km/h (0 Bft) S 180 -0,0 C -1,1 C 0,0 km/h (0 Bft)
10.11.2013 20:15 0,4 C 97 % 1015,4 hPa 0,0 l/m 0,0 km/h (0 Bft) S 180 -0,0 C -1,1 C 0,0 km/h (0 Bft)
10.11.2013 20:20 0,3 C 97 % 1015,4 hPa 0,0 l/m 0,0 km/h (0 Bft) S 180 -0,1 C -1,1 C 0,0 km/h (0 Bft)
10.11.2013 20:25 0,3 C 97 % 1015,4 hPa 0,0 l/m 0,0 km/h (0 Bft) S 180 -0,1 C -1,1 C 0,0 km/h (0 Bft)
10.11.2013 20:30 0,3 C 97 % 1015,9 hPa 0,0 l/m 0,0 km/h (0 Bft) S 180 -0,1 C -1,1 C 0,0 km/h (0 Bft)
10.11.2013 20:35 0,3 C 97 % 1015,9 hPa 0,0 l/m 0,0 km/h (0 Bft) S 180 -0,1 C -1,1 C 0,0 km/h (0 Bft)
10.11.2013 20:40 0,3 C 97 % 1015,9 hPa 0,0 l/m 0,0 km/h (0 Bft) S 180 -0,1 C -1,1 C 0,0 km/h (0 Bft)
10.11.2013 20:45 0,3 C 97 % 1015,9 hPa 0,0 l/m 0,0 km/h (0 Bft) S 180 -0,1 C -1,1 C 0,0 km/h (0 Bft)
10.11.2013 20:50 0,3 C 97 % 1016,3 hPa 0,0 l/m 0,0 km/h (0 Bft) S 180 -0,1 C -1,1 C 0,0 km/h (0 Bft)
10.11.2013 20:55 0,3 C 97 % 1016,3 hPa 0,0 l/m 0,0 km/h (0 Bft) S 180 -0,1 C -1,1 C 0,0 km/h (0 Bft)
10.11.2013 21:00 0,3 C 97 % 1016,3 hPa 0,0 l/m 0,0 km/h (0 Bft) S 180 -0,1 C -1,1 C 0,0 km/h (0 Bft)
10.11.2013 21:05 0,3 C 97 % 1016,3 hPa 0,0 l/m 0,0 km/h (0 Bft) S 180 -0,1 C -1,1 C 0,0 km/h (0 Bft)
10.11.2013 21:10 0,3 C 97 % 1016,9 hPa 0,0 l/m 0,0 km/h (0 Bft) S 180 -0,1 C -1,1 C 0,0 km/h (0 Bft)
10.11.2013 21:15 0,3 C 97 % 1016,9 hPa 0,0 l/m 0,0 km/h (0 Bft) S 180 -0,1 C -1,1 C 0,0 km/h (0 Bft)
10.11.2013 21:20 0,4 C 97 % 1016,9 hPa 0,0 l/m 0,0 km/h (0 Bft) S 180 -0,0 C -1,1 C 0,0 km/h (0 Bft)
10.11.2013 21:25 0,3 C 97 % 1016,9 hPa 0,0 l/m 0,0 km/h (0 Bft) S 180 -0,1 C -1,1 C 0,0 km/h (0 Bft)
10.11.2013 21:30 0,3 C 97 % 1017,1 hPa 0,0 l/m 0,0 km/h (0 Bft) S 180 -0,1 C -1,1 C 0,0 km/h (0 Bft)
10.11.2013 21:35 0,3 C 97 % 1017,1 hPa 0,0 l/m 0,0 km/h (0 Bft) S 180 -0,1 C -1,1 C 0,0 km/h (0 Bft)
10.11.2013 21:40 0,3 C 97 % 1017,1 hPa 0,0 l/m 0,0 km/h (0 Bft) S 180 -0,1 C -1,1 C 0,0 km/h (0 Bft)
10.11.2013 21:45 0,3 C 97 % 1017,1 hPa 0,0 l/m 0,0 km/h (0 Bft) S 180 -0,1 C -1,1 C 0,0 km/h (0 Bft)
10.11.2013 21:50 0,3 C 97 % 1017,6 hPa 0,0 l/m 0,0 km/h (0 Bft) S 180 -0,1 C -1,1 C 0,0 km/h (0 Bft)
10.11.2013 21:55 0,3 C 97 % 1017,6 hPa 0,0 l/m 0,0 km/h (0 Bft) S 180 -0,1 C -1,1 C 0,0 km/h (0 Bft)
10.11.2013 22:00 0,3 C 97 % 1017,6 hPa 0,0 l/m 0,0 km/h (0 Bft) S 180 -0,1 C -1,1 C 0,0 km/h (0 Bft)
10.11.2013 22:05 0,4 C 97 % 1017,6 hPa 0,0 l/m 0,0 km/h (0 Bft) S 180 -0,0 C -1,1 C 0,0 km/h (0 Bft)
10.11.2013 22:10 0,4 C 97 % 1017,9 hPa 0,0 l/m 0,0 km/h (0 Bft) S 180 -0,0 C -1,1 C 0,0 km/h (0 Bft)
10.11.2013 22:15 0,3 C 97 % 1017,9 hPa 0,0 l/m 0,0 km/h (0 Bft) S 180 -0,1 C -1,1 C 0,0 km/h (0 Bft)
10.11.2013 22:20 0,3 C 97 % 1017,9 hPa 0,0 l/m 0,0 km/h (0 Bft) S 180 -0,1 C -1,1 C 0,0 km/h (0 Bft)
10.11.2013 22:25 0,3 C 97 % 1017,9 hPa 0,0 l/m 0,0 km/h (0 Bft) S 180 -0,1 C -1,1 C 0,0 km/h (0 Bft)
10.11.2013 22:30 0,4 C 97 % 1018,1 hPa 0,7 l/m 0,0 km/h (0 Bft) S 180 -0,0 C -1,1 C 0,0 km/h (0 Bft)
10.11.2013 22:35 0,4 C 97 % 1018,1 hPa 0,0 l/m 0,0 km/h (0 Bft) S 180 -0,0 C -1,1 C 0,0 km/h (0 Bft)
10.11.2013 22:40 0,4 C 97 % 1018,1 hPa 0,0 l/m 0,0 km/h (0 Bft) S 180 -0,0 C -1,1 C 0,0 km/h (0 Bft)
10.11.2013 22:45 0,4 C 97 % 1018,1 hPa 0,0 l/m 0,0 km/h (0 Bft) S 180 -0,0 C -1,1 C 0,0 km/h (0 Bft)
10.11.2013 22:50 0,4 C 97 % 1018,4 hPa 0,0 l/m 0,0 km/h (0 Bft) S 180 -0,0 C -1,1 C 0,0 km/h (0 Bft)
10.11.2013 22:53 0,4 C 97 % 1018,4 hPa 0,0 l/m 0,0 km/h (0 Bft) S 180 -0,0 C -1,1 C 0,0 km/h (0 Bft)
10.11.2013 22:55 0,4 C 97 % 1018,4 hPa 0,0 l/m 0,0 km/h (0 Bft) S 180 -0,0 C -1,1 C 0,0 km/h (0 Bft)
10.11.2013 23:00 0,4 C 97 % 1018,4 hPa 0,0 l/m 0,0 km/h (0 Bft) S 180 -0,0 C -1,1 C 0,0 km/h (0 Bft)
10.11.2013 23:05 0,4 C 97 % 1018,4 hPa 0,0 l/m 0,0 km/h (0 Bft) S 180 -0,0 C -1,1 C 0,0 km/h (0 Bft)
10.11.2013 23:10 0,4 C 97 % 1018,8 hPa 0,0 l/m 0,0 km/h (0 Bft) S 180 -0,0 C -1,1 C 0,0 km/h (0 Bft)
10.11.2013 23:15 0,4 C 97 % 1018,8 hPa 0,0 l/m 0,0 km/h (0 Bft) S 180 -0,0 C -1,1 C 0,0 km/h (0 Bft)
10.11.2013 23:20 0,4 C 97 % 1018,8 hPa 0,0 l/m 0,0 km/h (0 Bft) S 180 -0,0 C -1,1 C 0,0 km/h (0 Bft)
10.11.2013 23:25 0,4 C 97 % 1018,8 hPa 0,0 l/m 0,0 km/h (0 Bft) S 180 -0,0 C -1,1 C 0,0 km/h (0 Bft)
10.11.2013 23:30 0,4 C 97 % 1019,1 hPa 0,0 l/m 0,0 km/h (0 Bft) S 180 -0,0 C -1,1 C 0,0 km/h (0 Bft)
10.11.2013 23:35 0,4 C 97 % 1019,1 hPa 0,0 l/m 0,0 km/h (0 Bft) S 180 -0,0 C -1,1 C 0,0 km/h (0 Bft)
10.11.2013 23:40 0,4 C 97 % 1019,1 hPa 0,0 l/m 0,0 km/h (0 Bft) S 180 -0,0 C -1,1 C 0,0 km/h (0 Bft)
10.11.2013 23:45 0,4 C 97 % 1019,1 hPa 0,0 l/m 0,0 km/h (0 Bft) S 180 -0,0 C -1,1 C 0,0 km/h (0 Bft)
10.11.2013 23:50 0,4 C 97 % 1019,2 hPa 0,0 l/m 0,0 km/h (0 Bft) S 180 -0,0 C -1,1 C 0,0 km/h (0 Bft)
10.11.2013 23:55 0,3 C 97 % 1019,2 hPa 0,0 l/m 0,0 km/h (0 Bft) S 180 -0,1 C -1,1 C 0,0 km/h (0 Bft)
_ Min-Zeit 00:25 13:30 13:45 - 23:55 - - 00:25 16:10 23:55
Minimum _ -0,5 C 79 % 1003,1 hPa - 0,0 km/h (0 Bft) - - -1,1 C -11,4 C 0,0 km/h (0 Bft)
_ Max-Zeit 13:55 23:55 23:55 22:30 15:15 - - 11:20 14:05 15:10
Maximum _ 6,4 C 97 % 1019,2 hPa 0,7 l/m 19,6 km/h
S (3 Bft)
- - 3,6 C 6,9 C 44,9 km/h
W-SW (6 Bft)
Durchschnitt _ 1,8 C 94 % 1009,7 hPa #5,5 l/m 3,0 km/h (1 Bft) S - 0,9 C -0,1 C 4,0 km/h (1 Bft)